Regional Weather Roundup
Issued by NWS Upton, NY

Current Version | Previous Version | Graphics & Text | Print | Product List | Glossary Off
Versions: 1 2 3 4 5 6 7 8 9 10 11 12 13 14 15 16 17 18 19 20 21 22 23 24 25 26 27 28 29 30 31 32 33 34 35 36 37 38 39 40 41 42 43 44 45 46 47 48 49 50

000
ASUS41 KOKX 201307
RWROKX

REGIONAL WEATHER ROUNDUP
NATIONAL WEATHER SERVICE NEW YORK NY
900 AM EDT MON APR 20 2015

NOTE: "FAIR" INDICATES FEW OR NO CLOUDS BELOW 12,000 FEET WITH NO
SIGNIFICANT WEATHER AND/OR OBSTRUCTIONS TO VISIBILITY.

NYZ071-072-176-178-NJZ106-104-201400-
NEW YORK CITY METRO AREA


CITY           SKY/WX    TMP DP  RH WIND       PRES   REMARKS
CENTRAL PARK   RAIN      51  48  89 VRB7      29.88F FOG
LAGUARDIA APRT LGT RAIN  53  50  89 E28       29.86F FOG
KENNEDY INTL   RAIN      51  47  86 E28G46    29.86F FOG
NEWARK/LIBERTY LGT RAIN  52  49  89 E15G30    29.83F FOG
BRNX BOT. GARD   N/A     45  45 100 E25       29.88F
TETERBORO      RAIN      46  45  93 NE6       29.86F
$$

NYZ177-179-078>081-201400-
LONG ISLAND NEW YORK

CITY           SKY/WX    TMP DP  RH WIND       PRES   REMARKS
FARMINGDALE    LGT RAIN  50  47  89 E22G37    29.87F FOG
ISLIP          LGT RAIN  50  46  86 E29G43    29.89F FOG
SHIRLEY        LGT RAIN  49  45  86 E13G29    29.94F FOG
WESTHAMPTON    LGT RAIN  47  43  86 E16G30    29.96F
MONTAUK POINT    N/A     48  41  76 E13G28    30.03F
$$

NYZ052-065-067-201400-
HUDSON VALLEY

CITY           SKY/WX    TMP DP  RH WIND       PRES   REMARKS
WHITE PLAINS   RAIN      45  43  93 E17G26    29.88F FOG
NEWBURGH       CLOUDY    48  46  93 E18G26    29.90F FOG
MONTGOMERY     RAIN      48  46  93 E10G17    29.88F FOG
POUGHKEEPSIE   LGT RAIN  49  43  80 SE14G21   29.89F
ALBANY         CLOUDY    46  33  60 SE6       29.94F
$$

NJZ001-105-106-008-010-013-015-019>022-104-201400-
NEW JERSEY

CITY           SKY/WX    TMP DP  RH WIND       PRES   REMARKS
NEWARK/LIBERTY LGT RAIN  52  49  89 E15G30    29.83F FOG
TETERBORO      RAIN      46  45  93 NE6       29.86F
CALDWELL       RAIN      47  32  56 E12       29.86F
MORRISTOWN     LGT RAIN  46  45  93 NE7       29.86F FOG
SOMERVILLE     RAIN      52  49  89 E12G20    29.78F FOG
SUSSEX         RAIN      48  44  86 E12G18    29.85F FOG
ANDOVER          N/A     48  45  89 MISG      29.81F
TRENTON        HVY RAIN  54  52  93 E6        29.74F FOG
MILLVILLE      LGT RAIN  63  61  93 S14G30    29.69S
ATLANTIC CITY  LGT RAIN  60  58  92 SE20G33   29.70F FOG
WRIGHTSTOWN    LGT RAIN  57  57 100 E18G25    29.68F FOG
TOMS RIVER     CLOUDY    57  55  94 SE21G38   29.75F
BELMAR         CLOUDY    52  46  82 E16G23    29.79F
$$

PAZ047>061-062-071-201400-
EASTERN PENNSYLVANIA

CITY           SKY/WX    TMP DP  RH WIND       PRES   REMARKS
PHILADELPHIA   RAIN      58  56  93 NE9       29.72F FOG
ALLENTOWN      RAIN      51  48  89 E10       29.77S FOG
SCRANTON       LGT RAIN  52  45  77 SE22G37   29.70R
$$

CTZ002-004>006-009-010-012-RIZ004-006-007-MAZ004-011-015-201400-
SOUTHERN NEW ENGLAND
 IN CT

CITY           SKY/WX    TMP DP  RH WIND       PRES   REMARKS
BRADLEY INTL   CLOUDY    45  41  86 NE7       30.05S
HARTFORD       CLOUDY    47  41  80 E15G22    30.01F
DANBURY        RAIN      48  41  76 E16G28    29.93F FOG
WTRBRY/OXFORD  CLOUDY    46  37  71 E13G23    29.97F
BRIDGEPORT     LGT RAIN  45  42  89 E28G35    29.95F FOG
MERIDEN        CLOUDY    49  41  74 E9        30.00F
NEW HAVEN      CLOUDY    47  41  80 E23G38    29.97F
CHESTER        CLOUDY    48  43  81 E8G17     30.02F
GROTON         CLOUDY    48  40  73 E22G32    30.03F
WILLIMANTIC    CLOUDY    46  41  82 E7        30.07F

 IN RI

CITY           SKY/WX    TMP DP  RH WIND       PRES   REMARKS
PROVIDENCE     CLOUDY    44  41  89 E8        30.13F
BLOCK ISLAND   CLOUDY    45  37  76 E16G23    30.06F
WESTERLY       CLOUDY    47  41  80 E20G29    30.07F

 IN MA

CITY           SKY/WX    TMP DP  RH WIND       PRES   REMARKS
BOSTON         CLOUDY    42  39  89 E17       30.18F
WORCESTER      CLOUDY    40  37  89 E9G20     30.10F WCI  34
WESTFIELD      CLOUDY    44  38  79 NE7       30.06F
PROVINCETOWN   CLOUDY   N/A N/A N/A E13G22    30.18F
NANTUCKET      CLOUDY    45  39  79 E22       30.14F
$$

ANZ330-335-338-340-345-350-353-355-201400-
COASTAL MARINE OBSERVATIONS


STATION/POSITION TIME  SKY/WX   TEMP    WIND        PRES    VSBY  WAVE
                                AIR SEA DIR/SP/G                  HT/PER
                 (UTC)          (F)     (DEG/KT/KT) (MB)    (MI)  (FT/S)
NY HARB ENTRANCE 1250            48 44   90/ 25/ 31 1008.9          8/ 6
4S FIRE IS       1203               44                N/A           7/ 6
20S FIRE ISLAND  1150               43              1011.8          7/ 6
23SW MTP         NOT AVBL
HUDSON CANYON    NOT AVBL
EXECUTION ROCKS  NOT AVBL
WESTERN LI SOUND NOT AVBL
CENTRAL LI SOUND NOT AVBL
EASTERN LI SOUND 1200            44      80/ 21/ 27   N/A
ROBBINS REEF     1200            49     100/ 33/ 40 1009.2
$$


>>>>>>>>>>>>>>>>>>>>>>>>>>>> KEY <<<<<<<<<<<<<<<<<<<<<<<<<<<
>                                                          <
>     SKY/WX - SKY CONDITION/PRESENT WEATHER               <
>     TMP    - TEMPERATURE IN FAHRENHEIT                   <
>     DP     - DEWPOINT IN FAHRENHEIT                      <
>     RH     - RELATIVE HUMIDITY IN PERCENT                <
>     WIND   - DIRECTION AND SPEED IN MPH                  <
>     PRES   - MEAN SEA LEVEL PRESSURE IN INCHES OF HG     <
>     WCI    - WIND CHILL INDEX                            <
>     VSB    - VISIBILITY IN MILES                         <
>     HX     - HEAT INDEX                                  <
>     TC     - TEMPERATURE IN CELSIUS                      <
>     VRB    - VARIABLE WIND DIRECTION                     <
>                                                          <
>>>>>>>>>>>>>>>>>>>>>>>>>>>> KEY <<<<<<<<<<<<<<<<<<<<<<<<<<<





USA.gov is the U.S. government's official web portal to all federal, state and local government web resources and services.